Time,TemperatureF,DewpointF,PressureIn,WindDirection,WindDirectionDegrees,WindSpeedMPH,WindSpeedGustMPH,Humidity,HourlyPrecipIn,Conditions,Clouds,dailyrainin,SoftwareType,DateUTC
2013-06-04 00:10:00,46.4,42.1,30.00,ESE,112,0.0,-999.0,85,-99.99,,,0.00,Acu-Link.com,2013-06-04 07:10:00,
2013-06-04 00:25:00,46.4,42.4,30.00,ESE,112,0.0,-999.0,86,-99.99,,,0.00,Acu-Link.com,2013-06-04 07:25:00,
2013-06-04 00:56:00,44.6,41.6,30.00,ESE,112,0.0,-999.0,89,-99.99,,,0.00,Acu-Link.com,2013-06-04 07:56:00,
2013-06-04 01:13:00,44.6,41.6,30.00,ESE,112,0.0,-999.0,89,-99.99,,,0.00,Acu-Link.com,2013-06-04 08:13:00,
2013-06-04 01:28:00,44.6,41.6,30.00,ESE,112,0.0,-999.0,89,-99.99,,,0.00,Acu-Link.com,2013-06-04 08:28:00,
2013-06-04 01:43:00,44.6,41.9,30.00,ESE,112,0.0,-999.0,90,-99.99,,,0.00,Acu-Link.com,2013-06-04 08:43:00,
2013-06-04 01:58:00,42.8,40.4,30.01,ESE,112,0.0,-999.0,91,-99.99,,,0.00,Acu-Link.com,2013-06-04 08:58:00,
2013-06-04 02:14:00,42.8,40.1,30.01,ESE,112,0.0,-999.0,90,-99.99,,,0.00,Acu-Link.com,2013-06-04 09:14:00,
2013-06-04 02:29:00,42.8,40.6,30.01,ESE,112,0.0,-999.0,92,-99.99,,,0.00,Acu-Link.com,2013-06-04 09:29:00,
2013-06-04 02:44:00,42.8,42.3,30.01,ESE,112,0.0,-999.0,98,-99.99,,,0.00,Acu-Link.com,2013-06-04 09:44:00,
2013-06-04 02:59:00,41.0,39.4,30.01,ESE,112,0.0,-999.0,94,-99.99,,,0.00,Acu-Link.com,2013-06-04 09:59:00,
2013-06-04 03:14:00,41.0,40.5,30.01,ESE,112,0.0,-999.0,98,-99.99,,,0.00,Acu-Link.com,2013-06-04 10:14:00,
2013-06-04 03:29:00,41.0,40.5,30.02,ESE,112,0.0,-999.0,98,-99.99,,,0.00,Acu-Link.com,2013-06-04 10:29:00,
2013-06-04 03:44:00,41.0,40.5,30.02,NE,45,0.0,-999.0,98,-99.99,,,0.00,Acu-Link.com,2013-06-04 10:44:00,
2013-06-04 03:59:00,41.0,40.5,30.02,NNW,337,0.0,-999.0,98,-99.99,,,0.00,Acu-Link.com,2013-06-04 10:59:00,
2013-06-04 04:14:00,41.0,40.5,30.02,ESE,112,0.0,-999.0,98,-99.99,,,0.00,Acu-Link.com,2013-06-04 11:14:00,
2013-06-04 04:29:00,41.0,40.5,30.02,ESE,112,0.0,-999.0,98,-99.99,,,0.00,Acu-Link.com,2013-06-04 11:29:00,
2013-06-04 04:44:00,41.0,40.5,30.02,SE,135,0.0,-999.0,98,-99.99,,,0.00,Acu-Link.com,2013-06-04 11:44:00,
2013-06-04 05:00:00,41.0,40.5,30.03,East,90,0.0,-999.0,98,-99.99,,,0.00,Acu-Link.com,2013-06-04 12:00:00,
2013-06-04 05:15:00,41.0,40.5,30.03,ESE,112,0.0,-999.0,98,-99.99,,,0.00,Acu-Link.com,2013-06-04 12:15:00,
2013-06-04 05:30:00,41.0,40.5,30.03,SSE,157,0.0,-999.0,98,-99.99,,,0.00,Acu-Link.com,2013-06-04 12:30:00,
2013-06-04 05:45:00,41.0,40.5,30.03,ESE,112,0.0,-999.0,98,-99.99,,,0.00,Acu-Link.com,2013-06-04 12:45:00,
2013-06-04 06:00:00,41.0,40.5,30.03,SSW,202,0.0,-999.0,98,-99.99,,,0.00,Acu-Link.com,2013-06-04 13:00:00,
2013-06-04 06:15:00,41.0,40.5,30.04,South,180,0.0,-999.0,98,-99.99,,,0.00,Acu-Link.com,2013-06-04 13:15:00,
2013-06-04 06:30:00,41.0,40.5,30.04,South,180,0.0,-999.0,98,-99.99,,,0.00,Acu-Link.com,2013-06-04 13:30:00,
2013-06-04 06:45:00,41.0,40.5,30.04,SSW,202,0.0,-999.0,98,-99.99,,,0.00,Acu-Link.com,2013-06-04 13:45:00,
2013-06-04 07:01:00,41.0,40.5,30.04,SSW,202,0.0,-999.0,98,-99.99,,,0.00,Acu-Link.com,2013-06-04 14:01:00,
2013-06-04 07:16:00,42.8,42.3,30.04,SW,225,0.0,-999.0,98,-99.99,,,0.00,Acu-Link.com,2013-06-04 14:16:00,
2013-06-04 07:31:00,44.6,44.1,30.04,South,180,0.0,-999.0,98,-99.99,,,0.00,Acu-Link.com,2013-06-04 14:31:00,
2013-06-04 07:46:00,46.4,45.9,30.04,SW,225,1.1,-999.0,98,-99.99,,,0.00,Acu-Link.com,2013-06-04 14:46:00,
2013-06-04 08:02:00,46.4,45.9,30.04,South,180,0.0,-999.0,98,-99.99,,,0.00,Acu-Link.com,2013-06-04 15:02:00,
2013-06-04 08:17:00,50.0,46.3,30.04,South,180,2.7,-999.0,87,-99.99,,,0.00,Acu-Link.com,2013-06-04 15:17:00,
2013-06-04 08:32:00,51.8,47.1,30.04,WSW,247,1.1,-999.0,84,-99.99,,,0.00,Acu-Link.com,2013-06-04 15:32:00,
2013-06-04 08:47:00,53.6,47.9,30.04,SSW,202,1.6,-999.0,81,-99.99,,,0.00,Acu-Link.com,2013-06-04 15:47:00,
2013-06-04 09:02:00,53.6,46.9,30.04,SE,135,0.0,-999.0,78,-99.99,,,0.00,Acu-Link.com,2013-06-04 16:02:00,
2013-06-04 09:17:00,55.4,46.9,30.04,South,180,0.0,-999.0,73,-99.99,,,0.00,Acu-Link.com,2013-06-04 16:17:00,
2013-06-04 09:33:00,59.0,47.3,30.03,West,270,1.1,-999.0,65,-99.99,,,0.00,Acu-Link.com,2013-06-04 16:33:00,
2013-06-04 09:48:00,60.8,47.3,30.03,SSW,202,2.0,-999.0,61,-99.99,,,0.00,Acu-Link.com,2013-06-04 16:48:00,
2013-06-04 10:03:00,62.6,48.5,30.03,ESE,112,1.1,-999.0,60,-99.99,,,0.00,Acu-Link.com,2013-06-04 17:03:00,
2013-06-04 10:18:00,66.2,47.5,30.02,East,90,0.0,-999.0,51,-99.99,,,0.00,Acu-Link.com,2013-06-04 17:18:00,
2013-06-04 10:33:00,64.4,45.4,30.02,NE,45,2.7,-999.0,50,-99.99,,,0.00,Acu-Link.com,2013-06-04 17:33:00,
2013-06-04 10:48:00,68.0,49.2,30.02,ENE,67,1.1,-999.0,51,-99.99,,,0.00,Acu-Link.com,2013-06-04 17:48:00,
2013-06-04 11:04:00,69.8,48.7,30.00,NNE,22,2.7,-999.0,47,-99.99,,,0.00,Acu-Link.com,2013-06-04 18:04:00,
2013-06-04 11:19:00,69.8,46.3,30.00,West,270,0.0,-999.0,43,-99.99,,,0.00,Acu-Link.com,2013-06-04 18:19:00,
2013-06-04 11:34:00,71.6,45.3,30.00,SE,135,2.7,-999.0,39,-99.99,,,0.00,Acu-Link.com,2013-06-04 18:34:00,
2013-06-04 11:49:00,71.6,43.2,30.00,SSE,157,2.7,-999.0,36,-99.99,,,0.00,Acu-Link.com,2013-06-04 18:49:00,
2013-06-04 12:04:00,69.8,42.3,30.00,South,180,3.1,-999.0,37,-99.99,,,0.00,Acu-Link.com,2013-06-04 19:04:00,
2013-06-04 12:19:00,71.6,42.5,29.99,ESE,112,1.6,-999.0,35,-99.99,,,0.00,Acu-Link.com,2013-06-04 19:19:00,
2013-06-04 12:34:00,73.4,41.7,29.99,South,180,1.6,-999.0,32,-99.99,,,0.00,Acu-Link.com,2013-06-04 19:34:00,
2013-06-04 12:49:00,69.8,41.6,29.98,SSW,202,2.0,-999.0,36,-99.99,,,0.00,Acu-Link.com,2013-06-04 19:49:00,
2013-06-04 13:04:00,69.8,41.6,29.98,SE,135,0.0,-999.0,36,-99.99,,,0.00,Acu-Link.com,2013-06-04 20:04:00,
2013-06-04 13:19:00,71.6,40.2,29.97,East,90,3.6,-999.0,32,-99.99,,,0.00,Acu-Link.com,2013-06-04 20:19:00,
2013-06-04 13:34:00,77.0,42.3,29.97,SW,225,2.0,-999.0,29,-99.99,,,0.00,Acu-Link.com,2013-06-04 20:34:00,
2013-06-04 13:49:00,73.4,38.3,29.97,ESE,112,2.0,-999.0,28,-99.99,,,0.00,Acu-Link.com,2013-06-04 20:49:00,
2013-06-04 14:04:00,73.4,36.4,29.96,SSE,157,2.7,-999.0,26,-99.99,,,0.00,Acu-Link.com,2013-06-04 21:04:00,
2013-06-04 14:19:00,73.4,39.2,29.96,ENE,67,0.0,-999.0,29,-99.99,,,0.00,Acu-Link.com,2013-06-04 21:19:00,
2013-06-04 14:34:00,77.0,40.4,29.95,South,180,2.0,-999.0,27,-99.99,,,0.00,Acu-Link.com,2013-06-04 21:34:00,
2013-06-04 14:49:00,75.2,37.9,29.95,South,180,1.1,-999.0,26,-99.99,,,0.00,Acu-Link.com,2013-06-04 21:49:00,
2013-06-04 15:04:00,77.0,37.4,29.94,SE,135,3.1,-999.0,24,-99.99,,,0.00,Acu-Link.com,2013-06-04 22:04:00,
2013-06-04 15:20:00,77.0,37.4,29.94,WSW,247,3.6,-999.0,24,-99.99,,,0.00,Acu-Link.com,2013-06-04 22:20:00,
2013-06-04 15:35:00,78.8,38.9,29.94,WSW,247,2.0,-999.0,24,-99.99,,,0.00,Acu-Link.com,2013-06-04 22:35:00,
2013-06-04 15:50:00,77.0,39.5,29.93,East,90,2.7,-999.0,26,-99.99,,,0.00,Acu-Link.com,2013-06-04 22:50:00,
2013-06-04 16:06:00,77.0,37.4,29.93,West,270,2.7,-999.0,24,-99.99,,,0.00,Acu-Link.com,2013-06-04 23:06:00,
2013-06-04 16:21:00,73.4,37.4,29.93,South,180,1.1,-999.0,27,-99.99,,,0.00,Acu-Link.com,2013-06-04 23:21:00,
2013-06-04 16:36:00,73.4,40.1,29.92,SSE,157,0.0,-999.0,30,-99.99,,,0.00,Acu-Link.com,2013-06-04 23:36:00,
2013-06-04 16:51:00,75.2,39.8,29.92,SSW,202,0.0,-999.0,28,-99.99,,,0.00,Acu-Link.com,2013-06-04 23:51:00,
2013-06-04 17:06:00,73.4,40.1,29.91,SSW,202,3.1,-999.0,30,-99.99,,,0.00,Acu-Link.com,2013-06-05 00:06:00,
2013-06-04 17:21:00,77.0,39.5,29.91,West,270,3.1,-999.0,26,-99.99,,,0.00,Acu-Link.com,2013-06-05 00:21:00,
2013-06-04 17:36:00,73.4,38.3,29.91,West,270,1.1,-999.0,28,-99.99,,,0.00,Acu-Link.com,2013-06-05 00:36:00,
2013-06-04 17:51:00,75.2,38.9,29.91,SSE,157,3.1,-999.0,27,-99.99,,,0.00,Acu-Link.com,2013-06-05 00:51:00,
2013-06-04 18:07:00,77.0,39.5,29.90,SSW,202,2.7,-999.0,26,-99.99,,,0.00,Acu-Link.com,2013-06-05 01:07:00,
2013-06-04 18:22:00,78.8,35.6,29.89,SE,135,0.0,-999.0,21,-99.99,,,0.00,Acu-Link.com,2013-06-05 01:22:00,
2013-06-04 18:37:00,77.0,37.4,29.89,WSW,247,0.0,-999.0,24,-99.99,,,0.00,Acu-Link.com,2013-06-05 01:37:00,
2013-06-04 18:52:00,73.4,38.3,29.89,SE,135,0.0,-999.0,28,-99.99,,,0.00,Acu-Link.com,2013-06-05 01:52:00,
2013-06-04 19:07:00,71.6,37.7,29.89,SW,225,0.0,-999.0,29,-99.99,,,0.00,Acu-Link.com,2013-06-05 02:07:00,
2013-06-04 19:22:00,71.6,39.4,29.89,ESE,112,0.0,-999.0,31,-99.99,,,0.00,Acu-Link.com,2013-06-05 02:22:00,
2013-06-04 19:37:00,71.6,41.0,29.88,NE,45,0.0,-999.0,33,-99.99,,,0.00,Acu-Link.com,2013-06-05 02:37:00,
2013-06-04 19:52:00,69.8,40.9,29.88,NE,45,0.0,-999.0,35,-99.99,,,0.00,Acu-Link.com,2013-06-05 02:52:00,
2013-06-04 20:07:00,69.8,43.0,29.88,East,90,0.0,-999.0,38,-99.99,,,0.00,Acu-Link.com,2013-06-05 03:07:00,
2013-06-04 20:23:00,68.0,40.8,29.87,East,90,0.0,-999.0,37,-99.99,,,0.00,Acu-Link.com,2013-06-05 03:23:00,
2013-06-04 20:38:00,66.2,40.5,29.87,East,90,0.0,-999.0,39,-99.99,,,0.00,Acu-Link.com,2013-06-05 03:38:00,
2013-06-04 20:53:00,64.4,42.0,29.87,NNE,22,0.0,-999.0,44,-99.99,,,0.00,Acu-Link.com,2013-06-05 03:53:00,
2013-06-04 21:08:00,62.6,41.5,29.87,ESE,112,0.0,-999.0,46,-99.99,,,0.00,Acu-Link.com,2013-06-05 04:08:00,
2013-06-04 21:23:00,60.8,42.0,29.87,NW,315,0.0,-999.0,50,-99.99,,,0.00,Acu-Link.com,2013-06-05 04:23:00,
2013-06-04 21:38:00,60.8,42.0,29.88,SSW,202,0.0,-999.0,50,-99.99,,,0.00,Acu-Link.com,2013-06-05 04:38:00,
2013-06-04 21:53:00,59.0,44.2,29.88,East,90,0.0,-999.0,58,-99.99,,,0.00,Acu-Link.com,2013-06-05 04:53:00,
2013-06-04 22:08:00,59.0,43.8,29.88,South,180,0.0,-999.0,57,-99.99,,,0.00,Acu-Link.com,2013-06-05 05:08:00,
2013-06-04 22:23:00,59.0,40.4,29.88,SSE,157,2.7,-999.0,50,-99.99,,,0.00,Acu-Link.com,2013-06-05 05:23:00,
2013-06-04 22:38:00,59.0,40.4,29.89,SW,225,0.0,-999.0,50,-99.99,,,0.00,Acu-Link.com,2013-06-05 05:38:00,
2013-06-04 22:53:00,59.0,41.4,29.90,South,180,0.0,-999.0,52,-99.99,,,0.00,Acu-Link.com,2013-06-05 05:53:00,
2013-06-04 23:08:00,59.0,41.9,29.90,NE,45,0.0,-999.0,53,-99.99,,,0.00,Acu-Link.com,2013-06-05 06:08:00,
2013-06-04 23:23:00,59.0,42.4,29.90,NNE,22,0.0,-999.0,54,-99.99,,,0.00,Acu-Link.com,2013-06-05 06:23:00,
2013-06-04 23:38:00,57.2,41.6,29.90,ENE,67,0.0,-999.0,56,-99.99,,,0.00,Acu-Link.com,2013-06-05 06:38:00,
2013-06-04 23:54:00,57.2,41.6,29.90,East,90,0.0,-999.0,56,-99.99,,,0.00,Acu-Link.com,2013-06-05 06:54:00,